[[{"header":{"parameterUnit":"m.s-1","parameterCategory":1,"la1":30.2992,"la2":30.254,"lo1":-89.0895,"lo2":-89.0443,"dy":0.0025,"dx":0.0025,"nx":19,"ny":19,"refTime":"2026-03-17T09:00:00:Z","depth":0,"parameterNumber":2,"parameterNumberName":"U-component_of_WINDS"},"data":[0,0,0,-1.3756,-1.3758,-1.3869,-1.3869,-1.4012,-1.4013,0,0,0,0,0,0,0,0,0,0,0,-1.3724,-1.3725,-1.3755,-1.3758,-1.3869,-1.3869,-1.4011,-1.4013,0,0,0,0,0,0,0,0,0,0,0,-1.3724,-1.3725,-1.3726,-1.3759,-1.3868,-1.3869,-1.4011,-1.3927,0,0,0,0,0,0,0,0,0,0,-1.382,-1.3792,-1.3724,-1.3726,-1.3759,-1.3868,-1.3869,-1.3923,-1.3933,-1.3962,0,-1.3989,0,-1.4003,-1.4023,-1.4023,0,0,0,-1.3757,-1.3784,-1.3813,-1.3726,-1.376,-1.3868,-1.3819,-1.3928,-1.3939,-1.3975,-1.3991,-1.3997,-1.4006,-1.4024,-1.4024,-1.4198,-1.4199,0,0,-1.3751,-1.3745,-1.3805,-1.382,-1.3803,-1.3815,-1.3822,-1.3935,-1.3953,-1.3992,-1.4,-1.4008,-1.4025,-1.4026,-1.4197,-1.4198,0,0,0,-1.3734,-1.374,-1.3766,-1.3814,-1.3834,-1.3818,-1.3826,-1.3948,-1.3956,-1.4001,-1.401,-1.4025,-1.4027,-1.4196,-1.4198,-1.4233,0,0,0,-1.3731,-1.3731,-1.3764,-1.3761,-1.3832,-1.3892,-1.3837,-1.3949,-1.3962,-1.4009,-1.4025,-1.4029,-1.4195,-1.4197,-1.423,-1.425,0,0,0,-1.3716,-1.3729,-1.3745,-1.376,-1.3807,-1.389,-1.3906,-1.3952,-1.3967,-1.4023,-1.4029,-1.4195,-1.4197,-1.4227,-1.4246,-1.4294,0,0,0,-1.37,-1.3776,-1.3746,-1.3834,-1.3806,-1.3911,-1.3905,-1.3984,-1.4036,-1.4026,-1.4196,-1.4197,-1.4226,-1.4244,-1.4291,-1.4332,-1.4349,0,0,-1.3792,-1.3787,-1.3839,-1.3815,-1.3923,-1.3895,-1.4008,-1.4063,-1.4075,-1.4156,-1.4161,-1.4231,-1.4246,-1.4293,-1.4445,-1.4458,0,0,0,-1.3866,-1.3903,-1.3933,-1.3983,-1.4026,-1.4064,-1.4102,-1.4122,-1.4191,-1.4115,-1.4261,-1.427,-1.4298,-1.4318,-1.4329,-1.4353,-1.4207,-1.4206,-1.4206,-1.3988,-1.3997,-1.4084,-1.4107,-1.4155,-1.4192,-1.4232,-1.4265,-1.4262,-1.4296,-1.4321,-1.4412,-1.4435,-1.4443,-1.4468,-1.4343,-1.4344,-1.4344,-1.4344,-1.4123,-1.4178,-1.417,-1.4252,-1.4261,-1.433,-1.4368,-1.4363,-1.4428,-1.4395,-1.442,-1.4382,-1.4458,-1.448,-1.4347,-1.4346,-1.4346,-1.4345,-1.4345,-1.4204,-1.4232,-1.4254,-1.4325,-1.4379,-1.4399,-1.4462,-1.4468,-1.4475,-1.45,-1.4526,-1.4525,-1.4525,-1.4512,-1.4512,-1.4513,-1.4513,-1.4513,-1.4513,-1.4279,-1.4303,-1.4355,-1.4405,-1.4437,-1.448,-1.4517,-1.4548,-1.4585,-1.4585,-1.4585,-1.4578,-1.4463,-1.4434,-1.4518,-1.4517,-1.4517,-1.4516,-1.4516,-1.4413,-1.4383,-1.4463,-1.4495,-1.4554,-1.4606,-1.4613,-1.4676,-1.4703,-1.4733,-1.472,-1.4635,-1.463,-1.4621,-1.4597,-1.4718,-1.4718,-1.4718,-1.4718,-1.4481,-1.4479,-1.4561,-1.4611,-1.466,-1.4674,-1.4763,-1.4792,-1.4817,-1.4834,-1.4817,-1.4786,-1.4777,-1.4777,-1.4765,-1.4743,-1.4899,-1.4899,-1.4899,-1.4564,-1.4566,-1.4641,-1.4664,-1.4711,-1.475,-1.4833,-1.489,-1.4913,-1.4906,-1.4847,-1.484,-1.4789,-1.4772,-1.4765,-1.4746,-1.4705,0,0]},{"header":{"parameterUnit":"m.s-1","parameterCategory":1,"la1":30.2992,"la2":30.254,"lo1":-89.0895,"lo2":-89.0443,"dy":0.0025,"dx":0.0025,"nx":19,"ny":19,"refTime":"2026-03-17T09:00:00:Z","depth":0,"parameterNumber":3,"parameterNumberName":"V-component_of_WINDS"},"data":[0,0,0,-3.7675,-3.7678,-3.7824,-3.7824,-3.8019,-3.8021,0,0,0,0,0,0,0,0,0,0,0,-3.7639,-3.764,-3.7675,-3.7679,-3.7824,-3.7825,-3.8019,-3.8021,0,0,0,0,0,0,0,0,0,0,0,-3.7638,-3.764,-3.7642,-3.7679,-3.7824,-3.7825,-3.8018,-3.7905,0,0,0,0,0,0,0,0,0,0,-3.7762,-3.7736,-3.7639,-3.7642,-3.768,-3.7824,-3.7825,-3.7899,-3.7912,-3.7957,0,-3.8,0,-3.8014,-3.8034,-3.8035,0,0,0,-3.7673,-3.7725,-3.7758,-3.7642,-3.7682,-3.7824,-3.7757,-3.7906,-3.7921,-3.7974,-3.8003,-3.801,-3.8017,-3.8036,-3.8037,-3.8316,-3.8317,0,0,-3.7665,-3.7668,-3.7749,-3.7768,-3.7748,-3.7752,-3.7761,-3.7915,-3.7946,-3.8004,-3.8014,-3.802,-3.8037,-3.8039,-3.8314,-3.8316,0,0,0,-3.7646,-3.7663,-3.7692,-3.776,-3.7786,-3.7757,-3.7767,-3.7939,-3.7949,-3.8016,-3.8022,-3.8038,-3.8041,-3.8313,-3.8315,-3.8394,0,0,0,-3.7641,-3.7652,-3.7689,-3.7692,-3.7783,-3.7865,-3.7788,-3.7938,-3.7955,-3.8022,-3.8038,-3.8043,-3.8311,-3.8314,-3.8388,-3.8431,0,0,0,-3.7627,-3.765,-3.7673,-3.7692,-3.7755,-3.7862,-3.788,-3.7942,-3.796,-3.8035,-3.8043,-3.831,-3.8313,-3.8383,-3.8422,-3.8504,0,0,0,-3.7613,-3.7742,-3.7675,-3.7821,-3.7754,-3.7911,-3.7879,-3.7996,-3.8071,-3.8039,-3.8311,-3.8315,-3.8381,-3.8417,-3.8499,-3.8573,-3.8605,0,0,-3.7778,-3.7762,-3.7848,-3.7792,-3.7962,-3.7888,-3.8069,-3.8135,-3.8139,-3.8256,-3.8263,-3.839,-3.8422,-3.8503,-3.8782,-3.8807,0,0,0,-3.7901,-3.7963,-3.8007,-3.8078,-3.8132,-3.818,-3.8217,-3.8241,-3.834,-3.82,-3.8442,-3.8461,-3.8508,-3.8544,-3.8565,-3.8605,-3.8332,-3.8331,-3.8331,-3.8139,-3.8137,-3.8278,-3.8294,-3.8363,-3.8399,-3.8455,-3.8493,-3.8471,-3.8528,-3.8563,-3.8733,-3.8774,-3.879,-3.8832,-3.8603,-3.8603,-3.8603,-3.8604,-3.8379,-3.8465,-3.8432,-3.8558,-3.8554,-3.8659,-3.8698,-3.8679,-3.8775,-3.8707,-3.8748,-3.8673,-3.8818,-3.8854,-3.861,-3.8609,-3.8608,-3.8607,-3.8607,-3.8534,-3.8574,-3.8601,-3.8703,-3.8781,-3.8791,-3.8885,-3.8879,-3.8873,-3.8915,-3.895,-3.8948,-3.8945,-3.8932,-3.8933,-3.8933,-3.8934,-3.8934,-3.8934,-3.8683,-3.8711,-3.8791,-3.8857,-3.89,-3.8957,-3.8994,-3.9037,-3.9082,-3.907,-3.907,-3.9042,-3.8833,-3.878,-3.8944,-3.8942,-3.8941,-3.894,-3.8939,-3.8926,-3.887,-3.8993,-3.9037,-3.9113,-3.919,-3.9181,-3.9268,-3.9302,-3.9348,-3.931,-3.9157,-3.9141,-3.9124,-3.908,-3.9311,-3.9311,-3.9311,-3.9311,-3.9056,-3.9047,-3.9171,-3.9241,-3.9309,-3.9313,-3.945,-3.9479,-3.95,-3.9521,-3.9486,-3.9428,-3.9411,-3.9404,-3.9381,-3.934,-3.9632,-3.9633,-3.9633,-3.9205,-3.9202,-3.9321,-3.9341,-3.9399,-3.9449,-3.9577,-3.9658,-3.967,-3.9646,-3.9536,-3.9523,-3.9428,-3.9398,-3.9371,-3.9335,-3.9259,0,0]}]]